Find Starlink 35976

NORAD ID: 66534 Int'l Des: 2025-265 Owner: SPXS Country: US Constellation: starlink operational
LEOCIRCULAR

当前视图

正在加载3D地球...

About Starlink 35976

Starlink 35976 (NORAD 66534) is a starlink constellation satellite (v2 mini) launched Nov 19, 2025 by SPXS of US. It operates in LEO, CIRCULAR orbit with a mass of 575.00 kg.

即将过境

Passes for default location (London). Set your location on the main map for personalized predictions.

高度历史

Loading altitude history...

两行轨道根数

1 66534U 25265U 26263.04707389 .00014769 00000-0 54428-3 0 9994
2 66534 43.0014 260.6696 0001394 248.9966 111.0737 15.27631825 46835
Epoch: Sep 20, 2026 • Age: 25 hours

当前状态

高度 489.1 km
远地点 / 近地点 N/A
速度 7.62 km/s
星下点 -26.48°S, 168.16°W
发射日期 Nov 19, 2025
运行时间 0.8 years
类型 internet

技术详情

分类 Payload
质量 575.00 kg
干质量 530.00 kg
长度 0.30 m
跨度 29.00 m
形状 ? Box + pan
制造商 SPXS
平台类型 Starlink V2MO
阶段状态 In Orbit
所有者/国家 SPXS/US

Most Searched